Date,TemperatureHighF,TemperatureAvgF,TemperatureLowF,DewpointHighF,DewpointAvgF,DewpointLowF,HumidityHigh,HumidityAvg,HumidityLow,PressureMaxIn,PressureMinIn,WindSpeedMaxMPH,WindSpeedAvgMPH,GustSpeedMaxMPH,PrecipitationSumIn
2013-6-1,84,74,65,69,67,64,100,80,57,29.97,29.76,11,1,24,0.04
2013-6-2,80,72,65,69,62,57,93,71,46,29.88,29.76,11,2,20,0.16
2013-6-3,69,64,54,60,56,49,88,75,61,30.07,29.87,8,1,11,0.00
2013-6-4,77,62,42,51,46,39,94,60,34,30.17,30.07,6,0,11,0.00
2013-6-5,83,69,53,65,54,46,88,62,41,30.11,29.86,5,0,7,0.01
2013-6-6,73,68,63,68,65,60,100,91,79,29.87,29.75,4,0,11,0.65
2013-6-7,72,62,56,60,56,53,94,83,61,29.89,29.79,5,1,11,0.00
2013-6-8,79,65,53,59,55,51,95,72,46,30.07,29.88,5,0,7,0.00
2013-6-9,83,73,63,67,63,58,88,73,44,30.10,29.93,6,0,8,0.01
2013-6-10,77,69,64,68,65,61,98,88,66,29.93,29.76,19,1,19,0.18
2013-6-11,85,72,64,66,63,61,93,75,49,29.93,29.82,14,1,14,0.00
2013-6-12,88,77,66,75,69,63,92,76,58,29.90,29.68,16,0,16,0.00
2013-6-13,80,70,65,72,62,56,96,77,52,29.87,29.55,24,2,24,0.81
2013-6-14,79,68,57,60,57,53,90,68,46,30.05,29.87,16,1,16,0.00
2013-6-15,81,68,52,62,57,50,100,70,40,30.13,29.96,8,0,8,0.00
2013-6-16,77,71,68,68,64,60,90,79,69,29.98,29.91,17,2,17,0.04
2013-6-17,85,74,65,71,67,63,95,80,53,29.97,29.87,8,0,11,0.00
2013-6-18,82,70,64,69,64,56,93,82,54,29.98,29.83,12,0,12,0.13
2013-6-19,80,70,54,60,53,46,90,58,31,30.14,29.97,10,0,10,0.00
2013-6-20,86,69,50,59,54,49,100,64,32,30.21,30.13,6,0,6,0.00
2013-6-21,87,72,55,65,59,53,100,67,38,30.23,30.12,10,0,10,0.00
2013-6-22,90,76,62,75,66,60,94,74,45,30.16,30.04,16,0,16,0.02
2013-6-23,90,78,64,71,67,62,100,72,47,30.12,30.02,14,0,14,0.00
2013-6-24,88,77,63,70,66,17,94,71,49,30.12,29.99,13,1,16,0.00
2013-6-25,90,80,69,75,69,63,90,71,55,30.04,29.85,21,1,21,0.00
2013-6-26,86,75,67,73,69,65,100,82,59,29.92,29.78,19,1,19,1.03
2013-6-27,84,71,67,72,69,66,100,93,65,29.78,29.65,10,0,11,0.18
2013-6-28,84,75,63,69,65,60,92,73,55,29.65,29.52,18,1,18,0.01
2013-6-29,80,69,59,66,62,57,94,79,58,29.66,29.54,16,1,16,0.00
2013-6-30,82,71,63,69,64,61,95,81,59,29.82,29.66,8,0,8,0.01